Location: Saratoga Springs
(43.0831°N, 73.7850°W)
Time: 13:49:39
(UTC-04:00)

Transit 4A - Pass Details

Date: 26 April 2024
Orbit: 871 x 971 km, 66.8° (Epoch: 20 May)

Event Time Altitude Azimuth Distance (km) Brightness Sun altitude
Rises 22:37:56 0° 312° (NW) 3,469 12.2 -25.1°
Reaches altitude 10° 22:41:23 10° 292° (WNW) 2,533 10.9 -25.5°
Maximum altitude 22:44:44 16° 256° (WSW) 2,146 10.0 -25.9°
Enters shadow 22:47:43 11° 224° (SW) 2,464 10.0 -26.2°
